FW6618 Weather Reports


time (UTC)temp
C
wind
direction
speed
KPH
gust
KPH
rain 1hr
cm
rain 24hr
cm
rain mn
cm
humidity
%
barometer
mb
20260506202017 14 225 1.6 3.2 0.84 3.66 3.51 96 1006.0
20260506201538 14 234 1.6 3.2 0.86 3.61 3.45 96 1006.0
20260506201019 14 248 1.6 3.2 0.91 3.61 3.45 96 1006.0
20260506200516 14 282 1.6 6.4 0.97 3.56 3.40 96 1006.2
20260506200036 14 300 3.2 8.0 0.84 3.40 3.25 96 1006.1
20260506195517 14 68 3.2 17.7 0.66 3.20 3.05 96 1006.0
20260506195018 14 329 4.8 17.7 0.66 3.15 2.97 96 1006.0
20260506194537 14 285 3.2 17.7 0.58 3.05 2.90 96 1006.0
20260506194017 14 299 1.6 3.2 0.53 2.95 2.82 96 1006.2
20260506193516 14 0 0.0 4.8 0.53 2.95 2.79 96 1006.1
20260506193037 14 193 1.6 12.9 0.53 2.92 2.77 96 1006.0
20260506192517 14 206 3.2 12.9 0.51 2.87 2.72 96 1006.1
20260506192018 14 224 1.6 6.4 0.48 2.79 2.64 96 1006.2
20260506191543 14 93 1.6 6.4 0.46 2.74 2.59 96 1006.3
20260506191020 15 234 1.6 6.4 0.43 2.64 2.51 96 1006.4
20260506190525 15 225 1.6 6.4 0.43 2.59 2.44 96 1006.4
20260506190038 15 75 1.6 4.8 0.48 2.57 2.41 96 1006.5
20260506185519 14 215 0.0 4.8 0.51 2.54 2.39 96 1006.6
20260506185018 15 271 1.6 4.8 0.51 2.49 2.34 96 1006.7
20260506184537 15 204 1.6 4.8 0.48 2.44 2.29 96 1006.6
20260506184017 15 300 0.0 3.2 0.51 2.44 2.29 96 1006.7
20260506183517 15 0 0.0 6.4 0.51 2.41 2.26 96 1006.7
20260506183041 14 139 1.6 6.4 0.53 2.39 2.24 96 1006.8
20260506182519 14 230 0.0 4.8 0.53 2.36 2.21 96 1006.9
20260506182018 14 316 1.6 4.8 0.53 2.31 2.16 96 1007.0
20260506181532 15 276 0.0 4.8 0.51 2.26 2.11 96 1007.1
20260506181017 15 221 1.6 8.0 0.51 2.21 2.06 96 1007.0
20260506180516 15 210 1.6 8.0 0.51 2.16 2.01 96 1007.3
20260506180036 15 5 1.6 8.0 0.46 2.08 1.93 96 1007.2
20260506175519 15 332 1.6 8.0 0.46 2.03 1.88 96 1007.3
20260506175017 15 194 0.0 8.0 0.46 1.98 1.83 96 1007.3
20260506174531 15 283 3.2 6.4 0.48 1.96 1.80 96 1007.3
20260506174017 15 341 1.6 4.8 0.51 1.93 1.78 96 1007.3
20260506173518 15 323 1.6 6.4 0.51 1.88 1.73 96 1007.4
20260506173038 14 327 1.6 6.4 0.53 1.85 1.70 96 1007.5
20260506172521 14 283 1.6 4.8 0.56 1.83 1.68 96 1007.4
20260506172018 14 253 1.6 4.8 0.56 1.78 1.63 96 1007.5
20260506171539 14 333 1.6 4.8 0.58 1.75 1.60 96 1007.7
20260506171021 14 161 1.6 4.8 0.58 1.70 1.55 96 1007.7
20260506170522 14 309 0.0 4.8 0.64 1.65 1.47 96 1007.8
20260506170046 14 30 0.0 4.8 0.69 1.63 1.47 96 1007.9
20260506165521 14 227 1.6 4.8 0.69 1.57 1.42 96 1007.9
20260506165020 14 143 1.6 6.4 0.69 1.52 1.37 96 1008.0
20260506164534 14 245 1.6 6.4 0.69 1.47 1.32 96 1008.1
20260506164023 14 225 0.0 8.0 0.66 1.42 1.27 96 1008.0
20260506163517 14 224 1.6 8.0 0.64 1.37 1.22 96 1008.1
20260506163042 14 0 0.0 0.0 0.64 1.32 1.17 96 1008.1
20260506162523 14 0 0.0 0.0 0.64 1.27 1.12 96 1008.2
20260506162024 14 0 0.0 0.0 0.64 1.22 1.07 96 1008.1
20260506161540 14 0 0.0 0.0 0.61 1.17 1.02 96 1008.3
20260506161021 14 0 0.0 0.0 0.56 1.09 0.94 96 1008.2
20260506160522 14 0 0.0 0.0 0.51 1.02 0.86 95 1008.3
20260506160041 14 0 0.0 0.0 0.46 0.94 0.79 96 1008.3
20260506155522 14 0 0.0 0.0 0.41 0.86 0.71 96 1008.1
20260506155020 14 0 0.0 0.0 0.41 0.84 0.69 96 1008.3
20260506154541 14 0 0.0 0.0 0.38 0.79 0.64 96 1008.4
20260506154019 14 0 0.0 0.0 0.41 0.76 0.61 96 1008.3
20260506153519 14 0 0.0 0.0 0.43 0.74 0.58 95 1008.5
20260506153034 14 0 0.0 0.0 0.41 0.69 0.53 95 1008.6
20260506152518 14 0 0.0 0.0 0.38 0.64 0.48 95 1008.8
20260506152021 14 0 0.0 0.0 0.33 0.58 0.43 95 1008.9
20260506151537 14 0 0.0 0.0 0.30 0.56 0.41 96 1008.9
20260506151017 14 0 0.0 0.0 0.28 0.53 0.38 95 1008.9
20260506150518 14 0 0.0 0.0 0.28 0.51 0.36 95 1009.1
20260506150038 13 0 0.0 0.0 0.25 0.48 0.33 95 1009.1
20260506145521 13 0 0.0 0.0 0.23 0.46 0.30 95 1009.2
20260506145020 13 0 0.0 0.0 0.23 0.43 0.28 95 1009.3
20260506144545 13 0 0.0 0.0 0.20 0.41 0.25 95 1009.4
20260506144020 13 0 0.0 0.0 0.15 0.36 0.20 95 1009.4
20260506143518 13 0 0.0 0.0 0.13 0.30 0.15 95 1009.7
20260506143035 13 0 0.0 0.0 0.10 0.28 0.13 95 1009.7
20260506142520 14 0 0.0 0.0 0.08 0.25 0.10 95 1009.7
20260506142019 14 0 0.0 0.0 0.08 0.25 0.10 95 1009.5
20260506141535 13 0 0.0 0.0 0.08 0.25 0.10 95 1009.5
20260506141019 13 0 0.0 0.0 0.08 0.25 0.10 95 1009.4
20260506140520 13 0 0.0 0.0 0.08 0.23 0.08 95 1009.2
20260506140034 13 0 0.0 0.0 0.08 0.23 0.08 95 1009.3
20260506135519 13 0 0.0 0.0 0.08 0.23 0.08 95 1009.2
20260506135018 13 0 0.0 0.0 0.05 0.20 0.05 95 1009.2
20260506134537 13 0 0.0 0.0 0.05 0.20 0.05 95 1009.0
20260506134019 13 0 0.0 0.0 0.03 0.18 0.03 95 1009.1
20260506133519 13 0 0.0 0.0 0.03 0.18 0.03 95 1009.0
20260506133037 13 0 0.0 0.0 0.03 0.18 0.03 95 1009.0
20260506132519 13 0 0.0 0.0 0.03 0.18 0.03 95 1009.0
20260506132022 13 0 0.0 0.0 0.03 0.18 0.03 95 1008.9
20260506131537 13 0 0.0 0.0 0.03 0.18 0.03 95 1009.0
20260506131017 13 0 0.0 0.0 0.03 0.18 0.03 95 1009.1
20260506130520 13 0 0.0 0.0 0.00 0.15 0.00 95 1009.0
20260506130037 13 0 0.0 0.0 0.00 0.15 0.00 95 1009.3
20260506125517 13 0 0.0 0.0 0.00 0.15 0.00 95 1009.3
20260506125023 13 0 0.0 0.0 0.00 0.15 0.00 95 1009.5
20260506124536 13 0 0.0 0.0 0.00 0.15 0.00 95 1009.6
20260506124021 13 0 0.0 0.0 0.00 0.15 0.00 95 1009.7
20260506123521 13 0 0.0 0.0 0.00 0.15 0.00 95 1009.6
20260506123035 13 0 0.0 0.0 0.00 0.15 0.00 95 1010.0
20260506122516 12 0 0.0 1.6 0.00 0.15 0.00 95 1009.8
20260506122017 12 0 0.0 1.6 0.00 0.15 0.00 95 1009.7
20260506121538 12 247 0.0 1.6 0.00 0.15 0.00 95 1009.5
20260506121018 12 0 0.0 1.6 0.00 0.15 0.00 95 1009.5
20260506120518 12 246 0.0 1.6 0.00 0.15 0.00 95 1009.5
20260506120042 12 271 0.0 4.8 0.00 0.15 0.00 95 1009.6
20260506115520 12 271 1.6 4.8 0.00 0.18 0.00 95 1009.5
20260506115019 12 176 0.0 4.8 0.00 0.18 0.00 95 1009.0
20260506114534 12 207 1.6 4.8 0.00 0.18 0.00 95 1009.1
20260506114020 12 24 1.6 3.2 0.00 0.18 0.00 95 1009.1
20260506113519 12 101 1.6 3.2 0.00 0.18 0.00 95 1009.3
20260506113034 11 327 0.0 4.8 0.00 0.18 0.00 95 1009.4
20260506112518 11 327 1.6 4.8 0.00 0.18 0.00 95 1009.4
20260506112018 11 242 0.0 3.2 0.00 0.18 0.00 95 1009.4
20260506111538 11 245 1.6 3.2 0.00 0.18 0.00 95 1009.6
20260506111019 11 200 0.0 0.0 0.00 0.18 0.00 95 1009.5
20260506110518 11 0 0.0 0.0 0.00 0.18 0.00 95 1009.4
20260506110037 11 0 0.0 0.0 0.00 0.18 0.00 95 1009.3
20260506105520 11 0 0.0 0.0 0.00 0.20 0.00 95 1009.3
20260506105020 11 0 0.0 1.6 0.00 0.20 0.00 95 1009.4
20260506104539 11 0 0.0 1.6 0.00 0.20 0.00 95 1009.1
20260506104018 11 0 0.0 1.6 0.00 0.20 0.00 95 1009.1
20260506103518 11 165 0.0 1.6 0.00 0.20 0.00 95 1009.2
20260506103046 11 172 0.0 1.6 0.00 0.20 0.00 95 1009.2
20260506102520 11 171 0.0 1.6 0.00 0.20 0.00 95 1009.1
20260506102020 11 171 0.0 1.6 0.00 0.20 0.00 95 1009.0
20260506101536 11 0 0.0 1.6 0.00 0.20 0.00 95 1009.2
20260506101024 11 170 0.0 1.6 0.00 0.20 0.00 95 1009.1
20260506100522 11 0 0.0 0.0 0.00 0.20 0.00 95 1009.0
20260506100038 11 0 0.0 0.0 0.00 0.20 0.00 95 1009.2
20260506095521 11 0 0.0 0.0 0.00 0.20 0.00 95 1009.1
20260506095020 11 0 0.0 0.0 0.00 0.20 0.00 95 1009.1
20260506094539 11 164 0.0 0.0 0.00 0.20 0.00 95 1009.2
20260506094018 11 0 0.0 0.0 0.00 0.20 0.00 95 1009.1
20260506093522 11 164 0.0 0.0 0.00 0.20 0.00 95 1009.0
20260506093037 11 0 0.0 0.0 0.00 0.20 0.00 95 1009.0
20260506092518 11 0 0.0 0.0 0.00 0.20 0.00 95 1009.2
20260506092018 11 0 0.0 0.0 0.00 0.20 0.00 95 1009.3
20260506091537 11 0 0.0 0.0 0.00 0.20 0.00 95 1009.1
20260506091019 11 0 0.0 0.0 0.00 0.20 0.00 95 1009.2
20260506090519 11 0 0.0 0.0 0.00 0.20 0.00 95 1009.3
20260506090044 11 0 0.0 0.0 0.00 0.20 0.00 95 1009.3
20260506085521 11 0 0.0 0.0 0.00 0.20 0.00 95 1009.5
20260506085019 11 0 0.0 0.0 0.00 0.20 0.00 95 1009.3
20260506084541 11 0 0.0 0.0 0.00 0.20 0.00 95 1009.5
20260506084019 11 0 0.0 0.0 0.00 0.20 0.00 95 1009.6
20260506083518 11 0 0.0 0.0 0.00 0.20 0.00 95 1009.6
20260506083036 11 164 0.0 0.0 0.00 0.20 0.00 94 1009.7
20260506082515 11 0 0.0 0.0 0.00 0.20 0.00 95 1009.6
20260506082018 11 0 0.0 0.0 0.00 0.20 0.00 94 1009.8
20260506081541 11 0 0.0 0.0 0.00 0.20 0.00 94 1009.7
20260506081017 11 0 0.0 0.0 0.00 0.20 0.00 94 1009.8
20260506080519 11 0 0.0 0.0 0.00 0.20 0.00 94 1010.0
20260506073518 12 0 0.0 0.0 0.00 0.20 0.00 94 1009.9
20260506073043 12 0 0.0 0.0 0.00 0.20 0.00 94 1010.0
20260506072518 12 0 0.0 0.0 0.00 0.20 0.00 94 1010.1
20260506072017 12 0 0.0 0.0 0.00 0.20 0.00 94 1010.0
20260506071535 12 0 0.0 0.0 0.00 0.20 0.00 94 1010.0
20260506071019 12 0 0.0 0.0 0.00 0.20 0.00 94 1010.0
20260506070517 13 164 0.0 0.0 0.00 0.20 0.00 94 1009.9
20260506062018 13 0 0.0 0.0 0.00 0.20 0.00 93 1010.2
20260506061548 13 0 0.0 0.0 0.00 0.20 0.00 93 1010.3
20260506061019 14 0 0.0 0.0 0.00 0.20 0.00 92 1010.1
20260506060523 14 0 0.0 1.6 0.00 0.20 0.00 92 1010.1
20260506051018 15 281 0.0 14.5 0.00 0.20 0.00 90 1010.6
20260506050529 15 28 4.8 14.5 0.00 0.20 0.00 90 1010.6
20260506045020 13 77 1.6 3.2 0.00 0.20 0.00 94 1010.6
20260506044546 13 0 0.0 1.6 0.00 0.20 0.00 94 1010.5
20260506044021 13 331 0.0 1.6 0.00 0.20 0.00 94 1010.7
20260506043519 13 0 0.0 3.2 0.00 0.20 0.00 94 1010.7
20260506043041 13 0 0.0 3.2 0.00 0.20 0.00 94 1010.6
20260506042519 13 337 0.0 1.6 0.00 0.20 0.00 94 1010.7
20260506042018 13 0 0.0 1.6 0.00 0.20 0.00 94 1010.5
20260506041536 13 0 0.0 0.0 0.00 0.20 0.00 95 1010.4
20260506041019 13 0 0.0 0.0 0.00 0.20 0.00 94 1010.4
20260506040519 13 0 0.0 0.0 0.00 0.20 0.00 95 1010.5
20260506040035 13 0 0.0 0.0 0.00 0.20 0.00 95 1010.4
20260506035523 13 0 0.0 0.0 0.00 0.20 0.20 95 1010.4
20260506035017 13 0 0.0 0.0 0.00 0.20 0.20 95 1010.3
20260506034533 13 0 0.0 0.0 0.00 0.20 0.20 95 1010.4
20260506034016 13 0 0.0 0.0 0.00 0.20 0.20 95 1010.4
20260506033518 13 0 0.0 0.0 0.03 0.20 0.20 95 1010.3
20260506033038 13 0 0.0 0.0 0.03 0.20 0.20 95 1010.1
20260506032516 13 0 0.0 0.0 0.03 0.20 0.20 94 1010.2
20260506032017 13 0 0.0 0.0 0.03 0.20 0.20 94 1010.1
20260506031546 13 0 0.0 0.0 0.03 0.20 0.20 94 1010.3
20260506031019 13 0 0.0 3.2 0.03 0.20 0.20 94 1010.2
20260506030521 13 0 0.0 3.2 0.03 0.20 0.20 94 1009.9
20260506030036 13 246 1.6 3.2 0.03 0.20 0.20 94 1009.7
20260506025521 13 55 1.6 3.2 0.03 0.20 0.20 94 1010.0
20260506025019 13 294 0.0 4.8 0.03 0.20 0.20 94 1010.1
20260506024543 13 25 1.6 4.8 0.03 0.20 0.20 94 1010.0
20260506024019 13 148 1.6 4.8 0.00 0.18 0.18 94 1010.4
20260506023520 13 0 0.0 0.0 0.00 0.18 0.18 94 1010.4
20260506023032 13 0 0.0 0.0 0.00 0.18 0.18 94 1010.0
20260506022518 13 0 0.0 0.0 0.00 0.18 0.18 94 1010.2
20260506022017 13 0 0.0 0.0 0.00 0.18 0.18 94 1010.0
20260506021532 13 0 0.0 0.0 0.00 0.18 0.18 94 1009.8
20260506021019 13 0 0.0 0.0 0.00 0.18 0.18 93 1010.3
20260506020519 13 0 0.0 0.0 0.00 0.18 0.18 93 1010.0
20260506020031 13 0 0.0 0.0 0.00 0.18 0.18 93 1010.0
20260506015519 13 0 0.0 0.0 0.00 0.18 0.18 93 1010.0
20260506015019 13 0 0.0 0.0 0.00 0.18 0.18 93 1010.0
20260506014535 13 0 0.0 0.0 0.00 0.18 0.18 93 1010.0
20260506014023 13 0 0.0 0.0 0.00 0.18 0.18 92 1009.9
20260506013517 13 0 0.0 0.0 0.00 0.18 0.18 92 1010.0
20260506013036 13 0 0.0 0.0 0.00 0.18 0.18 92 1009.7
20260506012518 13 0 0.0 0.0 0.00 0.18 0.18 92 1009.8
20260506012021 13 0 0.0 0.0 0.00 0.18 0.18 92 1009.8
20260506011537 13 0 0.0 0.0 0.00 0.18 0.18 92 1009.5
20260506011018 13 0 0.0 0.0 0.00 0.18 0.18 92 1009.7
20260506010519 13 0 0.0 0.0 0.00 0.18 0.18 92 1009.5
20260506010035 13 0 0.0 0.0 0.00 0.18 0.18 92 1009.6
20260506005521 13 0 0.0 0.0 0.00 0.18 0.18 92 1009.3
20260506005019 13 0 0.0 0.0 0.00 0.18 0.18 92 1009.3
20260506004537 14 0 0.0 0.0 0.00 0.18 0.18 92 1009.2
20260506004018 14 0 0.0 0.0 0.00 0.18 0.18 92 1009.2
20260506003519 14 0 0.0 0.0 0.00 0.18 0.18 91 1009.2
20260506003032 15 0 0.0 0.0 0.00 0.18 0.18 91 1009.1
20260506002519 15 0 0.0 0.0 0.00 0.18 0.18 91 1009.2
20260506002019 15 0 0.0 0.0 0.00 0.18 0.18 91 1009.1
20260506001540 15 0 0.0 0.0 0.00 0.18 0.18 90 1008.8
20260506001019 15 0 0.0 0.0 0.00 0.18 0.18 90 1008.4
20260506000518 15 0 0.0 3.2 0.00 0.18 0.18 89 1008.6
20260506000040 16 348 0.0 3.2 0.00 0.18 0.18 89 1008.7
20260505235521 16 350 0.0 3.2 0.00 0.18 0.18 88 1008.6
20260505235018 16 0 0.0 0.0 0.00 0.18 0.18 87 1008.5
20260505234535 16 0 0.0 0.0 0.00 0.18 0.18 86 1008.8
20260505234022 16 0 0.0 1.6 0.00 0.18 0.18 85 1008.9
20260505233516 17 33 0.0 1.6 0.00 0.18 0.18 84 1009.0
20260505233037 17 34 0.0 1.6 0.00 0.18 0.18 80 1009.0
20260505232519 17 33 0.0 3.2 0.00 0.18 0.18 80 1008.7
20260505232024 17 108 0.0 3.2 0.00 0.18 0.18 77 1008.8
20260505231538 17 104 1.6 3.2 0.00 0.18 0.18 75 1008.6
20260505231022 17 85 1.6 3.2 0.00 0.18 0.18 78 1008.5
20260505230518 17 89 1.6 3.2 0.00 0.18 0.18 78 1008.5
20260505230036 17 347 1.6 6.4 0.00 0.18 0.18 78 1008.6
20260505225516 18 257 0.0 6.4 0.00 0.18 0.18 76 1008.7
20260505225020 18 127 3.2 8.0 0.00 0.18 0.18 75 1009.0
20260505224537 18 145 3.2 8.0 0.03 0.18 0.18 74 1008.9
20260505224019 18 283 1.6 6.4 0.03 0.18 0.18 74 1008.9
20260505223524 18 169 1.6 6.4 0.05 0.18 0.18 72 1008.8
20260505223037 18 153 1.6 11.3 0.08 0.18 0.18 72 1008.8
20260505222519 18 104 4.8 11.3 0.08 0.18 0.18 72 1008.2
20260505222017 18 94 3.2 9.7 0.08 0.18 0.18 75 1008.3
20260505221537 18 79 3.2 9.7 0.08 0.18 0.18 77 1008.2
20260505221019 17 229 3.2 8.0 0.08 0.18 0.18 76 1008.3
20260505220517 17 155 1.6 12.9 0.08 0.18 0.18 78 1008.0
20260505220038 17 54 3.2 12.9 0.08 0.18 0.18 80 1007.7
20260505215518 17 340 1.6 12.9 0.08 0.18 0.18 82 1007.7
20260505215018 17 259 3.2 12.9 0.08 0.18 0.18 80 1007.9
20260505214600 18 37 1.6 9.7 0.05 0.15 0.15 79 1007.7
20260505214018 18 326 3.2 9.7 0.05 0.15 0.15 74 1007.8
20260505213518 19 74 3.2 6.4 0.00 0.10 0.10 69 1007.8
20260505213038 19 245 3.2 6.4 0.03 0.10 0.10 69 1007.4
20260505212521 19 319 0.0 8.0 0.03 0.10 0.10 72 1006.9
20260505212016 19 75 3.2 8.0 0.05 0.10 0.10 71 1006.6
20260505211535 19 82 3.2 8.0 0.05 0.10 0.10 73 1006.5
20260505211016 19 79 4.8 8.0 0.05 0.10 0.10 74 1006.4
20260505210516 18 102 3.2 14.5 0.05 0.10 0.10 75 1006.3
20260505210036 18 225 3.2 16.1 0.05 0.10 0.10 76 1006.1
20260505205517 18 271 6.4 17.7 0.05 0.10 0.10 77 1006.0
20260505205018 18 15 8.0 17.7 0.05 0.10 0.10 77 1006.3
20260505204535 17 321 4.8 12.9 0.05 0.10 0.10 80 1005.7
20260505204017 17 306 6.4 17.7 0.05 0.10 0.10 78 1006.0
20260505203522 18 276 6.4 17.7 0.05 0.10 0.10 75 1006.2
20260505203034 19 280 9.7 19.3 0.03 0.08 0.08 70 1006.0
20260505202517 21 319 8.0 19.3 0.00 0.05 0.05 64 1005.6